FW7711 Weather Reports


time (UTC)temp
C
wind
direction
speed
KPH
gust
KPH
rain 1hr
cm
rain 24hr
cm
rain mn
cm
humidity
%
barometer
mb
20260502223058 18 0.0 0.0 0.00 0.00 0.00 34 1011.7
20260502221559 18 0.0 0.0 0.00 0.00 0.00 35 1011.9
20260502220143 18 0.0 0.0 0.00 0.00 0.00 34 1012.1
20260502214559 18 0.0 0.0 0.00 0.00 0.00 35 1012.3
20260502213107 18 0.0 0.0 0.00 0.00 0.00 34 1012.5
20260502211557 18 0.0 0.0 0.00 0.00 0.00 34 1012.9
20260502204610 18 0.0 0.0 0.00 0.00 0.00 35 1013.4
20260502203112 18 0.0 0.0 0.00 0.00 0.00 36 1013.7
20260502201601 18 0.0 0.0 0.00 0.00 0.00 33 1014.1
20260502200101 18 0.0 0.0 0.00 0.00 0.00 34 1014.4
20260502194559 17 0.0 0.0 0.00 0.00 0.00 36 1014.6
20260502193107 17 0.0 0.0 0.00 0.00 0.00 34 1014.9
20260502191622 17 0.0 0.0 0.00 0.00 0.00 34 1015.4
20260502190112 17 0.0 0.0 0.00 0.00 0.00 36 1015.7
20260502184559 16 0.0 0.0 0.00 0.00 0.00 34 1016.0
20260502183103 16 0.0 0.0 0.00 0.00 0.00 37 1016.2
20260502181600 16 0.0 0.0 0.00 0.00 0.00 39 1016.4
20260502180115 16 0.0 0.0 0.00 0.00 0.00 37 1016.7
20260502163113 14 0.0 0.0 0.00 0.00 0.00 39 1018.1
20260502161600 13 0.0 0.0 0.00 0.00 0.00 42 1018.3
20260502160104 13 0.0 0.0 0.00 0.00 0.00 43 1018.4
20260502151615 12 0.0 0.0 0.00 0.00 0.00 47 1018.7
20260502150106 11 0.0 0.0 0.00 0.00 0.00 53 1018.8
20260502140105 8 0.0 0.0 0.00 0.00 0.00 61 1019.3
20260502130111 5 0.0 0.0 0.00 0.00 0.00 73 1019.4
20260502123110 2 0.0 0.0 0.00 0.00 0.00 83 1019.4
20260502121617 1 0.0 0.0 0.00 0.00 0.00 88 1019.3
20260502120109 0 0.0 0.0 0.00 0.00 0.00 87 1019.2
20260502114604 0 0.0 0.0 0.00 0.00 0.00 86 1019.2
20260502113059 0 0.0 0.0 0.00 0.00 0.00 86 1019.1
20260502111600 0 0.0 0.0 0.00 0.00 0.00 85 1019.1
20260502110104 0 0.0 0.0 0.00 0.00 0.00 85 1019.0
20260502104557 0 0.0 0.0 0.00 0.00 0.00 85 1019.1
20260502103102 0 0.0 0.0 0.00 0.00 0.00 84 1019.1
20260502101604 0 0.0 0.0 0.00 0.00 0.00 84 1019.0
20260502070101 2 0.0 0.0 0.00 0.00 0.00 77 1019.3
20260502064600 2 0.0 0.0 0.00 0.00 0.00 76 1019.3
20260502063107 2 0.0 0.0 0.00 0.00 0.00 74 1019.4
20260502061606 2 0.0 0.0 0.00 0.00 0.00 74 1019.4
20260502060106 2 0.0 0.0 0.00 0.00 0.00 72 1019.4
20260502054600 2 0.0 0.0 0.00 0.00 0.00 72 1019.5
20260502053107 2 0.0 0.0 0.00 0.00 0.00 70 1019.5
20260502051645 3 0.0 0.0 0.00 0.00 0.00 69 1019.5
20260502050059 3 0.0 0.0 0.00 0.00 0.00 68 1019.4
20260502044600 3 0.0 0.0 0.00 0.00 0.00 66 1019.3
20260502043107 3 0.0 0.0 0.00 0.00 0.00 65 1019.3
20260502041556 4 0.0 0.0 0.00 0.00 0.00 62 1019.3
20260502040059 4 0.0 0.0 0.00 0.00 0.00 62 1019.3
20260502034600 5 0.0 0.0 0.00 0.00 0.00 59 1019.3
20260502033059 5 0.0 0.0 0.00 0.00 0.00 58 1019.4
20260502031600 5 0.0 0.0 0.00 0.00 0.00 56 1019.4
20260502030105 6 0.0 0.0 0.00 0.00 0.00 52 1019.4
20260502024600 6 0.0 0.0 0.00 0.00 0.00 50 1019.4
20260502023102 7 0.0 0.0 0.00 0.00 0.00 50 1019.3
20260502021616 8 0.0 0.0 0.00 0.00 0.00 47 1019.2
20260502020100 8 0.0 0.0 0.00 0.00 0.00 47 1019.1
20260502014604 9 0.0 0.0 0.00 0.00 0.00 45 1018.9
20260502013102 10 0.0 0.0 0.00 0.00 0.00 41 1018.8
20260502011601 10 0.0 0.0 0.00 0.00 0.00 38 1018.8
20260502004605 11 0.0 0.0 0.00 0.00 0.00 37 1018.6
20260502003055 11 0.0 0.0 0.00 0.00 0.00 39 1018.7
20260502001556 11 0.0 0.0 0.00 0.00 0.00 38 1018.6
20260502000108 11 0.0 0.0 0.00 0.00 0.00 37 1018.6
20260501234606 12 0.0 0.0 0.00 0.00 0.00 35 1018.7
20260501233059 12 0.0 0.0 0.00 0.00 0.00 34 1018.6
20260501231557 13 0.0 0.0 0.00 0.00 0.00 32 1018.5
20260501230056 13 0.0 0.0 0.00 0.00 0.00 35 1018.6
20260501224604 13 0.0 0.0 0.00 0.00 0.00 35 1018.6